QPF
0.00 0.00 0.00 0.00 0.00 0.00 0.00 0.00 0.00 0.00 0.00 0.00 0.00 0.00 0.00 0.00 0.00 0.00 0.00 0.00 0.00 0.00 0.00 0.00 0.00 0.00 0.00 0.00 0.00 0.00 0.00 0.00 0.00 0.01 0.01 0.01 0.02 0.04 0.06 0.08 0.11 0.12 0.13
0.00 0.00 0.00 0.00 0.00 0.00 0.00 0.00 0.00 0.00 0.00 0.00 0.00 0.00 0.00 0.00 0.00 0.00 0.00 0.00 0.00 0.00 0.00 0.00 0.00 0.00 0.00 0.00 0.00 0.00 0.00 0.00 0.00 0.00 0.00 0.00 0.00 0.00 0.01 0.02 0.04 0.07 0.10
0.00 0.00 0.00 0.00 0.00 0.00 0.00 0.00 0.00 0.00 0.00 0.00 0.00 0.00 0.00 0.00 0.00 0.00 0.00 0.00 0.00 0.00 0.00 0.00 0.00 0.00 0.00 0.00 0.00 0.00 0.00 0.00 0.00 0.00 0.00 0.00 0.00 0.00 0.00 0.00 0.00 0.01 0.04
0.00 0.00 0.00 0.00 0.00 0.00 0.00 0.00 0.00 0.00 0.00 0.00 0.00 0.00 0.00 0.00 0.00 0.00 0.00 0.00 0.00 0.00 0.00 0.00 0.00 0.00 0.00 0.00 0.00 0.00 0.00 0.00 0.00 0.00 0.00 0.00 0.00 0.00 0.00 0.00 0.00 0.00 0.00
0.00 0.00 0.00 0.00 0.00 0.00 0.00 0.00 0.00 0.00 0.00 0.00 0.00 0.00 0.00 0.00 0.00 0.00 0.00 0.00 0.00 0.00 0.00 0.00 0.00 0.00 0.00 0.00 0.00 0.00 0.00 0.00 0.00 0.00 0.00 0.00 0.00 0.00 0.00 0.00 0.00 0.00 0.00
0.00 0.00 0.00 0.00 0.00 0.00 0.00 0.00 0.00 0.00 0.00 0.00 0.00 0.00 0.00 0.00 0.00 0.00 0.00 0.00 0.00 0.00 0.00 0.00 0.00 0.00 0.00 0.00 0.00 0.00 0.00 0.00 0.00 0.00 0.00 0.00 0.00 0.00 0.00 0.00 0.00 0.00 0.00
0.00 0.00 0.00 0.00 0.00 0.00 0.00 0.00 0.00 0.00 0.00 0.00 0.00 0.00 0.00 0.00 0.00 0.00 0.00 0.00 0.00 0.00 0.00 0.00 0.00 0.00 0.00 0.00 0.00 0.00 0.00 0.00 0.00 0.00 0.00 0.00 0.00 0.00 0.00 0.00 0.00 0.00 0.00
0.00 0.00 0.00 0.00 0.00 0.00 0.00 0.00 0.00 0.00 0.00 0.00 0.00 0.00 0.00 0.00 0.00 0.00 0.00 0.00 0.00 0.00 0.00 0.00 0.00 0.00 0.00 0.00 0.00 0.00 0.00 0.00 0.00 0.00 0.00 0.00 0.00 0.00 0.00 0.00 0.00 0.00 0.01
0.00 0.00 0.00 0.00 0.00 0.00 0.00 0.00 0.00 0.00 0.00 0.00 0.00 0.00 0.00 0.00 0.00 0.00 0.00 0.00 0.00 0.00 0.00 0.00 0.00 0.00 0.00 0.00 0.00 0.00 0.00 0.00 0.00 0.00 0.00 0.00 0.00 0.00 0.00 0.01 0.01 0.01 0.01
0.00 0.00 0.00 0.00 0.00 0.00 0.00 0.00 0.00 0.00 0.00 0.00 0.00 0.00 0.00 0.00 0.00 0.00 0.00 0.00 0.00 0.00 0.00 0.00 0.00 0.00 0.00 0.00 0.00 0.00 0.00 0.00 0.00 0.00 0.00 0.00 0.01 0.01 0.01 0.01 0.02 0.02 0.02
0.00 0.00 0.00 0.00 0.00 0.00 0.00 0.00 0.00 0.00 0.00 0.00 0.00 0.00 0.00 0.00 0.00 0.00 0.00 0.00 0.00 0.00 0.00 0.00 0.00 0.00 0.00 0.00 0.00 0.00 0.00 0.00 0.00 0.00 0.00 0.01 0.01 0.02 0.02 0.03 0.03 0.04 0.04
0.00 0.00 0.00 0.00 0.00 0.00 0.00 0.00 0.00 0.00 0.00 0.00 0.00 0.00 0.00 0.00 0.00 0.00 0.00 0.00 0.00 0.00 0.00 0.00 0.00 0.00 0.00 0.00 0.00 0.00 0.00 0.00 0.00 0.00 0.00 0.01 0.02 0.02 0.03 0.04 0.04 0.04 0.04
0.00 0.00 0.00 0.00 0.00 0.00 0.00 0.00 0.00 0.00 0.00 0.00 0.00 0.00 0.00 0.00 0.00 0.00 0.00 0.00 0.00 0.00 0.00 0.00 0.00 0.00 0.00 0.00 0.00 0.00 0.00 0.00 0.00 0.00 0.01 0.01 0.02 0.02 0.02 0.03 0.03 0.04 0.04
0.00 0.00 0.00 0.00 0.00 0.00 0.00 0.00 0.00 0.00 0.00 0.00 0.00 0.00 0.00 0.00 0.00 0.00 0.00 0.00 0.00 0.00 0.00 0.00 0.00 0.00 0.00 0.00 0.00 0.00 0.00 0.00 0.00 0.00 0.01 0.02 0.02 0.02 0.02 0.02 0.02 0.03 0.04
0.00 0.00 0.00 0.00 0.00 0.00 0.00 0.00 0.00 0.00 0.00 0.00 0.00 0.00 0.00 0.00 0.00 0.00 0.00 0.00 0.00 0.00 0.00 0.00 0.00 0.00 0.00 0.00 0.00 0.00 0.00 0.00 0.00 0.01 0.01 0.01 0.01 0.02 0.02 0.03 0.03 0.03 0.04
0.00 0.00 0.00 0.00 0.00 0.00 0.00 0.00 0.00 0.00 0.00 0.00 0.00 0.00 0.00 0.00 0.00 0.00 0.00 0.00 0.00 0.00 0.00 0.00 0.00 0.00 0.00 0.00 0.00 0.00 0.00 0.00 0.01 0.01 0.01 0.01 0.02 0.02 0.02 0.03 0.03 0.03 0.03
0.00 0.00 0.00 0.00 0.00 0.00 0.00 0.00 0.00 0.00 0.00 0.00 0.00 0.00 0.00 0.00 0.00 0.00 0.00 0.00 0.00 0.00 0.00 0.00 0.00 0.00 0.00 0.00 0.00 0.00 0.00 0.00 0.00 0.01 0.02 0.01 0.02 0.02 0.02 0.03 0.03 0.04 0.04
0.00 0.00 0.00 0.00 0.00 0.00 0.00 0.00 0.00 0.00 0.00 0.00 0.00 0.00 0.00 0.00 0.00 0.00 0.00 0.00 0.00 0.00 0.00 0.01 0.00 0.00 0.00 0.00 0.00 0.00 0.00 0.01 0.01 0.01 0.01 0.01 0.01 0.02 0.02 0.02 0.03 0.04 0.04
0.00 0.00 0.00 0.00 0.00 0.00 0.00 0.00 0.00 0.00 0.00 0.00 0.00 0.00 0.00 0.00 0.00 0.00 0.00 0.00 0.00 0.00 0.01 0.01 0.01 0.00 0.00 0.00 0.00 0.00 0.00 0.00 0.00 0.00 0.00 0.00 0.01 0.01 0.02 0.03 0.03 0.03 0.03
0.00 0.00 0.00 0.00 0.00 0.00 0.00 0.00 0.00 0.00 0.00 0.00 0.00 0.00 0.00 0.00 0.00 0.00 0.00 0.00 0.00 0.00 0.00 0.01 0.02 0.01 0.01 0.01 0.01 0.00 0.00 0.00 0.00 0.00 0.00 0.00 0.00 0.01 0.01 0.01 0.01 0.01 0.01
0.00 0.00 0.00 0.00 0.00 0.00 0.00 0.00 0.00 0.00 0.00 0.00 0.00 0.00 0.00 0.00 0.00 0.00 0.01 0.01 0.01 0.01 0.03 0.04 0.03 0.02 0.01 0.00 0.00 0.00 0.00 0.00 0.00 0.00 0.00 0.00 0.00 0.00 0.00 0.00 0.00 0.00 0.00
0.00 0.00 0.00 0.00 0.00 0.00 0.00 0.00 0.00 0.00 0.00 0.00 0.00 0.00 0.00 0.00 0.00 0.00 0.00 0.01 0.02 0.04 0.05 0.06 0.04 0.02 0.00 0.00 0.01 0.01 0.02 0.02 0.01 0.00 0.00 0.00 0.00 0.00 0.00 0.00 0.00 0.00 0.01
0.00 0.00 0.00 0.00 0.00 0.00 0.00 0.00 0.00 0.00 0.00 0.00 0.00 0.00 0.00 0.00 0.00 0.00 0.00 0.01 0.03 0.04 0.04 0.03 0.01 0.01 0.01 0.01 0.03 0.04 0.03 0.03 0.02 0.00 0.00 0.00 0.00 0.00 0.00 0.00 0.00 0.00 0.01
0.00 0.00 0.00 0.00 0.00 0.00 0.00 0.00 0.00 0.00 0.00 0.00 0.00 0.00 0.00 0.00 0.00 0.01 0.02 0.04 0.02 0.01 0.00 0.00 0.01 0.01 0.01 0.01 0.02 0.04 0.03 0.02 0.01 0.00 0.00 0.00 0.00 0.00 0.00 0.00 0.00 0.00 0.00
0.00 0.00 0.00 0.00 0.00 0.00 0.00 0.00 0.00 0.00 0.00 0.00 0.00 0.00 0.00 0.00 0.01 0.03 0.05 0.04 0.01 0.00 0.00 0.01 0.01 0.00 0.00 0.00 0.01 0.05 0.05 0.03 0.01 0.00 0.00 0.00 0.00 0.00 0.00 0.00 0.00 0.00 0.00
0.00 0.00 0.00 0.00 0.00 0.00 0.00 0.00 0.00 0.00 0.00 0.00 0.00 0.00 0.00 0.00 0.02 0.03 0.02 0.01 0.00 0.01 0.02 0.01 0.00 0.00 0.00 0.00 0.00 0.03 0.08 0.09 0.05 0.02 0.00 0.01 0.02 0.02 0.03 0.00 0.00 0.00 0.00
MSLP
1015.12 1015.35 1015.55 1015.71 1015.85 1015.98 1016.11 1016.23 1016.35 1016.45 1016.51 1016.54 1016.52 1016.47 1016.38 1016.29 1016.17 1016.05 1015.92 1015.77 1015.60 1015.39 1015.14 1014.87 1014.58 1014.30 1014.03 1013.79 1013.59 1013.43 1013.29 1013.16 1013.03 1012.88 1012.71 1012.51 1012.27 1012.02 1011.74 1011.46 1011.18 1010.92 1010.69
1015.10 1015.37 1015.61 1015.83 1016.04 1016.23 1016.41 1016.57 1016.71 1016.81 1016.86 1016.86 1016.80 1016.71 1016.60 1016.48 1016.36 1016.25 1016.16 1016.06 1015.95 1015.81 1015.64 1015.42 1015.17 1014.89 1014.60 1014.31 1014.04 1013.79 1013.57 1013.37 1013.17 1012.98 1012.77 1012.54 1012.29 1012.00 1011.69 1011.36 1011.02 1010.69 1010.38
1015.15 1015.46 1015.75 1016.03 1016.29 1016.53 1016.75 1016.94 1017.09 1017.18 1017.21 1017.17 1017.07 1016.94 1016.79 1016.64 1016.51 1016.41 1016.34 1016.29 1016.24 1016.17 1016.06 1015.91 1015.70 1015.43 1015.13 1014.80 1014.46 1014.13 1013.82 1013.53 1013.27 1013.02 1012.77 1012.52 1012.24 1011.95 1011.62 1011.27 1010.90 1010.53 1010.18
1015.30 1015.65 1015.99 1016.30 1016.61 1016.89 1017.14 1017.34 1017.49 1017.56 1017.56 1017.49 1017.35 1017.18 1016.99 1016.81 1016.66 1016.55 1016.49 1016.46 1016.45 1016.43 1016.37 1016.27 1016.09 1015.84 1015.53 1015.17 1014.78 1014.39 1014.00 1013.63 1013.29 1012.98 1012.69 1012.41 1012.12 1011.82 1011.49 1011.13 1010.76 1010.37 1009.99
1015.56 1015.94 1016.30 1016.65 1016.98 1017.28 1017.54 1017.75 1017.89 1017.95 1017.93 1017.83 1017.67 1017.47 1017.24 1017.03 1016.85 1016.72 1016.64 1016.60 1016.59 1016.58 1016.55 1016.47 1016.32 1016.08 1015.78 1015.40 1014.98 1014.53 1014.08 1013.64 1013.24 1012.87 1012.53 1012.21 1011.90 1011.59 1011.26 1010.90 1010.53 1010.14 1009.75
1015.89 1016.29 1016.67 1017.03 1017.37 1017.68 1017.95 1018.15 1018.29 1018.35 1018.32 1018.21 1018.04 1017.83 1017.59 1017.35 1017.13 1016.96 1016.83 1016.74 1016.69 1016.65 1016.60 1016.51 1016.37 1016.15 1015.85 1015.47 1015.04 1014.56 1014.07 1013.58 1013.12 1012.69 1012.30 1011.94 1011.59 1011.25 1010.91 1010.55 1010.17 1009.78 1009.39
1016.25 1016.65 1017.04 1017.41 1017.76 1018.06 1018.33 1018.53 1018.67 1018.73 1018.72 1018.63 1018.48 1018.28 1018.04 1017.78 1017.53 1017.30 1017.10 1016.93 1016.80 1016.68 1016.57 1016.44 1016.28 1016.05 1015.76 1015.39 1014.97 1014.49 1013.98 1013.46 1012.95 1012.47 1012.01 1011.59 1011.19 1010.81 1010.43 1010.05 1009.66 1009.27 1008.88
1016.59 1017.00 1017.39 1017.76 1018.10 1018.40 1018.66 1018.87 1019.02 1019.10 1019.12 1019.08 1018.97 1018.80 1018.58 1018.32 1018.04 1017.74 1017.45 1017.18 1016.93 1016.70 1016.49 1016.29 1016.08 1015.84 1015.55 1015.20 1014.79 1014.32 1013.82 1013.28 1012.74 1012.20 1011.68 1011.19 1010.72 1010.27 1009.84 1009.43 1009.02 1008.62 1008.23
1016.90 1017.31 1017.70 1018.06 1018.39 1018.68 1018.94 1019.15 1019.32 1019.44 1019.50 1019.52 1019.47 1019.36 1019.17 1018.92 1018.61 1018.26 1017.87 1017.48 1017.10 1016.74 1016.41 1016.11 1015.83 1015.55 1015.25 1014.91 1014.52 1014.08 1013.59 1013.04 1012.47 1011.89 1011.30 1010.73 1010.19 1009.66 1009.17 1008.70 1008.26 1007.85 1007.46
1017.15 1017.57 1017.96 1018.31 1018.63 1018.92 1019.17 1019.39 1019.57 1019.72 1019.84 1019.91 1019.93 1019.88 1019.74 1019.52 1019.20 1018.79 1018.32 1017.81 1017.29 1016.80 1016.34 1015.92 1015.56 1015.22 1014.90 1014.56 1014.19 1013.76 1013.28 1012.74 1012.14 1011.51 1010.87 1010.23 1009.60 1009.01 1008.45 1007.93 1007.45 1007.02 1006.63
1017.38 1017.80 1018.20 1018.55 1018.86 1019.13 1019.37 1019.58 1019.77 1019.94 1020.10 1020.22 1020.30 1020.30 1020.21 1020.01 1019.69 1019.25 1018.72 1018.11 1017.48 1016.85 1016.27 1015.74 1015.28 1014.88 1014.52 1014.17 1013.79 1013.37 1012.89 1012.34 1011.73 1011.07 1010.38 1009.67 1008.98 1008.32 1007.70 1007.14 1006.63 1006.18 1005.79
1017.61 1018.05 1018.44 1018.79 1019.09 1019.34 1019.55 1019.74 1019.91 1020.08 1020.25 1020.40 1020.51 1020.56 1020.52 1020.35 1020.04 1019.58 1019.00 1018.33 1017.61 1016.88 1016.18 1015.55 1015.00 1014.53 1014.11 1013.72 1013.33 1012.90 1012.41 1011.85 1011.22 1010.54 1009.81 1009.07 1008.33 1007.62 1006.96 1006.37 1005.84 1005.37 1004.98
1017.87 1018.32 1018.71 1019.05 1019.32 1019.54 1019.71 1019.86 1020.00 1020.14 1020.29 1020.43 1020.56 1020.63 1020.61 1020.47 1020.18 1019.73 1019.13 1018.42 1017.64 1016.84 1016.06 1015.34 1014.70 1014.15 1013.67 1013.23 1012.79 1012.34 1011.83 1011.26 1010.62 1009.91 1009.17 1008.40 1007.64 1006.91 1006.24 1005.62 1005.08 1004.61 1004.21
1018.17 1018.62 1019.01 1019.32 1019.56 1019.73 1019.85 1019.94 1020.01 1020.10 1020.20 1020.32 1020.43 1020.50 1020.49 1020.37 1020.09 1019.66 1019.07 1018.35 1017.54 1016.70 1015.86 1015.07 1014.36 1013.74 1013.18 1012.68 1012.19 1011.69 1011.16 1010.56 1009.91 1009.19 1008.45 1007.68 1006.92 1006.19 1005.51 1004.89 1004.35 1003.87 1003.47
1018.48 1018.92 1019.29 1019.57 1019.77 1019.89 1019.94 1019.96 1019.96 1019.98 1020.02 1020.08 1020.15 1020.20 1020.19 1020.07 1019.81 1019.39 1018.82 1018.11 1017.30 1016.44 1015.57 1014.74 1013.96 1013.27 1012.64 1012.07 1011.52 1010.97 1010.40 1009.78 1009.11 1008.39 1007.65 1006.89 1006.14 1005.43 1004.76 1004.15 1003.60 1003.12 1002.71
1018.77 1019.19 1019.53 1019.78 1019.93 1019.99 1019.98 1019.92 1019.85 1019.79 1019.76 1019.76 1019.78 1019.78 1019.74 1019.62 1019.37 1018.97 1018.41 1017.72 1016.93 1016.06 1015.18 1014.31 1013.49 1012.74 1012.05 1011.41 1010.80 1010.19 1009.57 1008.92 1008.24 1007.52 1006.78 1006.04 1005.31 1004.62 1003.96 1003.36 1002.81 1002.32 1001.88
1019.00 1019.39 1019.69 1019.90 1020.00 1020.01 1019.94 1019.82 1019.68 1019.55 1019.45 1019.39 1019.35 1019.31 1019.23 1019.08 1018.82 1018.43 1017.89 1017.21 1016.43 1015.58 1014.69 1013.80 1012.95 1012.15 1011.40 1010.70 1010.03 1009.38 1008.71 1008.03 1007.33 1006.60 1005.87 1005.13 1004.42 1003.73 1003.08 1002.48 1001.92 1001.42 1000.95
1019.16 1019.51 1019.76 1019.92 1019.98 1019.94 1019.82 1019.66 1019.47 1019.29 1019.13 1019.01 1018.92 1018.82 1018.70 1018.52 1018.23 1017.82 1017.28 1016.61 1015.84 1014.99 1014.11 1013.22 1012.34 1011.51 1010.73 1009.98 1009.26 1008.56 1007.85 1007.14 1006.41 1005.66 1004.92 1004.18 1003.46 1002.77 1002.11 1001.49 1000.92 1000.39 999.90
1019.24 1019.54 1019.75 1019.87 1019.88 1019.81 1019.66 1019.46 1019.24 1019.02 1018.83 1018.66 1018.51 1018.36 1018.19 1017.95 1017.63 1017.19 1016.63 1015.95 1015.18 1014.34 1013.46 1012.57 1011.69 1010.85 1010.04 1009.26 1008.50 1007.76 1007.02 1006.27 1005.50 1004.73 1003.97 1003.20 1002.46 1001.74 1001.06 1000.41 999.80 999.24 998.72
1019.27 1019.52 1019.69 1019.76 1019.74 1019.64 1019.47 1019.25 1019.01 1018.77 1018.54 1018.33 1018.13 1017.93 1017.69 1017.40 1017.02 1016.53 1015.94 1015.25 1014.47 1013.63 1012.76 1011.88 1011.01 1010.17 1009.36 1008.56 1007.79 1007.01 1006.24 1005.45 1004.65 1003.84 1003.03 1002.23 1001.44 1000.68 999.95 999.25 998.60 997.99 997.43
1019.28 1019.49 1019.61 1019.65 1019.60 1019.47 1019.28 1019.04 1018.78 1018.52 1018.26 1018.01 1017.76 1017.50 1017.20 1016.83 1016.39 1015.85 1015.22 1014.50 1013.71 1012.88 1012.03 1011.17 1010.33 1009.51 1008.70 1007.91 1007.13 1006.33 1005.53 1004.70 1003.86 1003.01 1002.15 1001.29 1000.45 999.63 998.83 998.08 997.36 996.69 996.08
1019.32 1019.48 1019.56 1019.56 1019.47 1019.31 1019.09 1018.83 1018.55 1018.26 1017.97 1017.67 1017.37 1017.04 1016.67 1016.23 1015.72 1015.13 1014.46 1013.72 1012.93 1012.12 1011.29 1010.47 1009.66 1008.87 1008.09 1007.32 1006.53 1005.73 1004.90 1004.04 1003.15 1002.24 1001.33 1000.41 999.51 998.62 997.75 996.92 996.13 995.39 994.70
1019.41 1019.53 1019.56 1019.51 1019.38 1019.17 1018.92 1018.62 1018.30 1017.97 1017.63 1017.28 1016.92 1016.53 1016.09 1015.59 1015.02 1014.38 1013.68 1012.93 1012.15 1011.36 1010.57 1009.79 1009.03 1008.28 1007.54 1006.78 1006.00 1005.19 1004.33 1003.44 1002.51 1001.56 1000.59 999.61 998.64 997.69 996.75 995.84 994.96 994.12 993.34
1019.55 1019.63 1019.61 1019.50 1019.31 1019.05 1018.73 1018.38 1018.01 1017.63 1017.23 1016.83 1016.40 1015.95 1015.44 1014.89 1014.27 1013.60 1012.88 1012.14 1011.38 1010.62 1009.88 1009.16 1008.45 1007.75 1007.03 1006.30 1005.52 1004.70 1003.82 1002.89 1001.93 1000.93 999.91 998.89 997.87 996.85 995.84 994.85 993.88 992.93 992.02
1019.72 1019.74 1019.66 1019.49 1019.23 1018.90 1018.52 1018.10 1017.67 1017.22 1016.77 1016.31 1015.83 1015.32 1014.76 1014.16 1013.52 1012.83 1012.12 1011.39 1010.67 1009.96 1009.27 1008.60 1007.94 1007.27 1006.58 1005.85 1005.07 1004.23 1003.33 1002.37 1001.37 1000.34 999.29 998.23 997.17 996.11 995.04 993.97 992.90 991.83 990.78
1019.87 1019.83 1019.69 1019.44 1019.11 1018.70 1018.25 1017.77 1017.27 1016.77 1016.26 1015.75 1015.22 1014.67 1014.09 1013.47 1012.81 1012.13 1011.43 1010.73 1010.05 1009.38 1008.74 1008.11 1007.49 1006.85 1006.17 1005.43 1004.64 1003.77 1002.83 1001.85 1000.82 999.76 998.69 997.61 996.53 995.43 994.32 993.18 992.02 990.83 989.63
Thickness
5670 5668 5665 5663 5661 5658 5655 5652 5650 5648 5646 5644 5642 5640 5639 5637 5635 5634 5633 5632 5631 5631 5631 5630 5630 5629 5629 5630 5630 5630 5631 5631 5632 5632 5633 5635 5636 5637 5639 5641 5643 5645 5647
5666 5662 5658 5655 5652 5649 5647 5644 5643 5641 5639 5637 5634 5632 5630 5628 5626 5625 5623 5622 5621 5619 5619 5619 5618 5618 5619 5619 5620 5620 5619 5619 5619 5620 5621 5623 5624 5626 5628 5630 5632 5635 5637
5660 5656 5651 5647 5644 5641 5639 5637 5636 5635 5633 5630 5627 5624 5622 5619 5617 5615 5613 5611 5609 5608 5607 5606 5605 5606 5606 5606 5607 5607 5607 5607 5607 5608 5609 5610 5611 5613 5616 5618 5620 5623 5626
5653 5648 5643 5639 5636 5634 5632 5630 5628 5626 5623 5620 5618 5616 5613 5610 5607 5605 5603 5601 5599 5596 5595 5594 5592 5592 5592 5592 5593 5593 5593 5594 5594 5594 5595 5596 5597 5599 5601 5604 5606 5609 5612
5645 5642 5636 5631 5628 5626 5623 5622 5618 5615 5612 5609 5608 5608 5604 5601 5598 5596 5594 5591 5588 5586 5584 5582 5579 5578 5578 5578 5578 5578 5578 5579 5579 5579 5580 5581 5582 5584 5586 5588 5591 5594 5597
5638 5634 5627 5623 5620 5617 5613 5611 5608 5605 5601 5598 5598 5598 5595 5593 5590 5587 5584 5581 5577 5575 5572 5569 5565 5563 5562 5562 5561 5561 5562 5562 5563 5564 5564 5565 5566 5567 5570 5572 5574 5577 5580
5629 5625 5619 5614 5611 5607 5603 5601 5598 5594 5590 5586 5584 5583 5584 5583 5581 5578 5574 5569 5566 5562 5558 5554 5550 5548 5546 5545 5544 5544 5544 5545 5546 5546 5547 5547 5548 5550 5552 5554 5557 5560 5563
5620 5616 5611 5606 5601 5597 5593 5589 5586 5581 5575 5571 5566 5564 5564 5568 5569 5570 5563 5558 5553 5548 5543 5537 5533 5532 5530 5529 5528 5527 5527 5527 5528 5528 5529 5529 5530 5532 5534 5536 5539 5541 5544
5611 5607 5602 5597 5592 5587 5582 5577 5573 5567 5560 5556 5552 5548 5544 5542 5546 5554 5552 5547 5540 5534 5527 5523 5520 5517 5515 5514 5512 5511 5511 5510 5510 5510 5510 5510 5511 5513 5514 5516 5519 5521 5524
5600 5597 5592 5587 5581 5577 5571 5566 5560 5554 5548 5542 5538 5533 5528 5524 5521 5531 5537 5533 5528 5521 5515 5512 5508 5505 5502 5499 5497 5495 5493 5492 5492 5491 5490 5490 5490 5491 5492 5494 5496 5498 5501
5590 5586 5581 5576 5570 5565 5559 5553 5547 5541 5535 5529 5524 5519 5515 5510 5504 5500 5511 5515 5513 5508 5502 5498 5496 5492 5487 5483 5480 5476 5474 5472 5471 5469 5468 5467 5467 5467 5467 5467 5469 5470 5472
5578 5574 5569 5564 5558 5553 5547 5541 5535 5529 5523 5517 5511 5505 5500 5495 5490 5484 5486 5494 5497 5496 5491 5487 5482 5476 5470 5465 5459 5455 5451 5447 5445 5443 5441 5439 5437 5436 5436 5435 5435 5436 5437
5567 5562 5558 5552 5546 5540 5535 5529 5523 5517 5511 5505 5499 5493 5487 5481 5475 5469 5466 5472 5477 5481 5478 5473 5465 5457 5449 5442 5435 5427 5423 5417 5413 5409 5405 5402 5399 5397 5395 5395 5395 5396 5398
5557 5552 5546 5540 5534 5529 5524 5518 5512 5506 5500 5494 5488 5481 5474 5468 5461 5453 5447 5444 5454 5463 5458 5455 5448 5438 5426 5414 5405 5397 5390 5382 5377 5372 5367 5363 5359 5356 5354 5353 5354 5355 5358
5548 5541 5536 5529 5523 5518 5512 5507 5500 5494 5488 5482 5476 5469 5461 5455 5447 5438 5429 5420 5415 5428 5446 5441 5427 5417 5401 5387 5374 5363 5353 5344 5337 5332 5328 5325 5321 5319 5318 5319 5320 5323 5326
5538 5531 5525 5519 5513 5507 5501 5496 5489 5484 5477 5470 5464 5456 5448 5441 5433 5424 5415 5406 5396 5392 5404 5416 5406 5395 5378 5360 5343 5327 5314 5305 5299 5294 5291 5290 5290 5290 5292 5294 5297 5300 5304
5527 5521 5515 5509 5502 5496 5490 5484 5478 5472 5465 5458 5450 5443 5435 5428 5419 5411 5402 5392 5382 5371 5371 5386 5378 5367 5351 5334 5318 5302 5288 5279 5274 5271 5268 5267 5267 5269 5271 5275 5279 5283 5287
5517 5511 5505 5498 5492 5486 5480 5473 5467 5460 5453 5445 5438 5430 5423 5416 5407 5398 5388 5378 5366 5353 5341 5344 5348 5336 5323 5306 5295 5285 5275 5266 5260 5257 5255 5255 5255 5257 5259 5262 5266 5271 5275
5507 5501 5494 5487 5481 5475 5469 5462 5456 5448 5441 5433 5425 5417 5410 5402 5393 5384 5373 5362 5350 5338 5322 5311 5309 5303 5298 5287 5278 5272 5265 5259 5254 5250 5249 5249 5249 5250 5253 5256 5259 5263 5267
5497 5490 5483 5477 5470 5464 5458 5451 5445 5437 5428 5420 5412 5403 5395 5386 5377 5368 5358 5346 5332 5318 5304 5292 5286 5282 5278 5273 5265 5262 5262 5258 5254 5248 5248 5248 5248 5248 5250 5252 5255 5259 5261
5486 5479 5472 5466 5459 5453 5447 5441 5434 5426 5417 5408 5399 5390 5381 5372 5363 5351 5339 5326 5309 5295 5285 5278 5274 5270 5266 5262 5258 5256 5256 5257 5255 5247 5250 5251 5247 5248 5248 5249 5252 5255 5259
5475 5468 5462 5454 5447 5441 5435 5430 5424 5415 5406 5396 5387 5378 5367 5357 5345 5334 5318 5304 5288 5275 5268 5264 5261 5258 5257 5253 5253 5252 5251 5253 5258 5252 5248 5252 5246 5248 5249 5250 5253 5256 5260
5464 5457 5450 5442 5435 5428 5424 5419 5412 5405 5393 5382 5373 5363 5353 5340 5326 5312 5302 5291 5277 5264 5257 5253 5253 5252 5250 5250 5249 5251 5250 5249 5249 5247 5245 5253 5250 5250 5251 5252 5255 5259 5263
5453 5445 5438 5431 5423 5417 5413 5407 5401 5392 5379 5368 5356 5345 5334 5322 5307 5297 5290 5280 5269 5260 5254 5251 5249 5249 5248 5248 5246 5246 5247 5250 5251 5246 5241 5246 5251 5252 5255 5257 5260 5264 5268
5441 5433 5426 5419 5412 5406 5401 5395 5389 5378 5367 5355 5342 5329 5315 5305 5293 5283 5275 5268 5263 5258 5254 5251 5250 5248 5248 5247 5245 5245 5246 5246 5251 5252 5245 5243 5249 5252 5259 5265 5270 5273 5277
5429 5422 5415 5408 5401 5394 5389 5383 5375 5366 5355 5345 5330 5313 5297 5285 5277 5270 5264 5260 5257 5255 5255 5253 5250 5249 5248 5247 5245 5242 5239 5240 5244 5249 5250 5245 5248 5248 5263 5276 5277 5278 5282